sat.trackr.live / text

‹ back to catalog

STARLINK-34580

NORAD 65808 · 2025-218T

PAYLOAD ACTIVE UNKNOWN

§ Identity

Operator
Country
US
Launch date
2025-09-26
Launch site
AFWTR
Launch vehicle
Mass (kg)
RCS (m²)

Purposes: comms

External: N2YO · Heavens-Above · Gunter

§ Orbital elements

Epoch: 2026-09-20T13:22:24.645216Z

Period
93.91 min
Inclination
97.2848°
Eccentricity
0.0001861
Mean motion
15.33445259 rev/d
Perigee alt
464.3 km
Apogee alt
466.8 km
Semi-major
6,843.7 km
B*
2.2127e-4
RAAN
120.9505°
Arg perigee
81.2263°
Mean anomaly
278.9191°
Rev number
5,434

§ Raw data

STARLINK-345801 65808U 25218T   26263.55722969  .00007075  00000+0  22127-3 0  99942 65808  97.2848 120.9505 0001861  81.2263 278.9191 15.33445259 54341

JSON: /api/v1/satellites/65808 · /tle

For live sub-satellite position, see the globe view (requires WebGL).

§ Visibility from observer

Set your observer location to see the next 7 days of passes ≥ 10°. The values pass through the URL so the page stays shareable.

No JS? Fill the form by hand. The geolocation button needs JavaScript.